Preview of NWS' New Version of Forecast
This preview is not operational and should not be used for support decisions.
Latest weather observations around

Dallas Love Field (KDAL)

Using English Units (Switch to International System of Units)
Date/ Time (CDT) Wind (mph) Vis. (mi) Weather Sky Cond. Temp (°F) Rel. Humidity Wind Chill (°F) Heat Index (°F) Pressure Precip. (in)
Air Dwpt 6 hour Altimeter (inHg) Sea level (inHg) 1 hr 3 hr 6 hr
Max Min
Apr 20 20:53 SSE 10 10 Mostly Clear FEW180 73 51     46%   72 29.92 29.91      
Apr 20 19:53 SSE 11 10 Mostly Clear FEW200 76 49     39%   75 29.92 29.9      
Apr 20 18:53 S 10 10 Clear CLR 78 47     33%   77 29.92 29.91      
Apr 20 17:53 SSW 8 10 Clear CLR 79 47     32%   78 29.93 29.92      
Apr 20 16:53 S 9 10 Clear CLR 79 46     31%   78 29.95 29.93      
Apr 20 15:53 SSW 8 10 Clear CLR 79 44     29%   78 29.98 29.96      
Apr 20 14:53 S 10 10 Clear CLR 78 42     28%   77 30.01 29.99      
Apr 20 13:53 SW 8 10 Clear CLR 77 40     26%   76 30.04 30.02      
Apr 20 12:53 SW 8 10 Clear CLR 74 40     29%   72 30.06 30.05      
Apr 20 11:53 7 10 Clear CLR 71 41     34%   69 30.09 30.08      
Apr 20 10:53 SW 7 10 Clear CLR 68 41     37%     30.11 30.09      
Apr 20 09:53 WSW 8 10 Clear CLR 63 44     50%     30.1 30.09      
Apr 20 08:53 Calm 10 Clear CLR 60 46     60%     30.08 30.07      
Apr 20 07:53 Calm 10 Mostly Clear FEW250 54 46     74%     30.08 30.07      
Apr 20 06:53 Calm 10 Mostly Clear FEW250 48 43     83%     30.06 30.05      
Apr 20 05:53 Calm 10 Clear CLR 49 44     83%     30.06 30.05      
Apr 20 04:53 Calm 10 Clear CLR 48 44     86%     30.05 30.04      
Apr 20 03:53 Calm 10 Clear CLR 50 44     80%     30.06 30.04      
Apr 20 02:53 Calm 10 Clear CLR 51 44     77%     30.05 30.03      
Apr 20 01:53 Calm 10 Clear CLR 55 43     64%     30.05 30.04      
Apr 20 00:53 Calm 10 Clear CLR 54 43     66%     30.06 30.05      
Apr 19 23:53 Calm 10 Clear CLR 54 43     66%     30.05 30.04      
Apr 19 22:53 Calm 10 Clear CLR 57 41     55%     30.06 30.05      
Apr 19 21:53 WNW 8 10 Clear CLR 62 38     41%     30.05 30.04      
Apr 19 20:53 NW 8 10 Mostly Clear FEW100 62 37     39%     30.04 30.03      
Apr 19 19:53 NW 15 10 Clear CLR 64 37     37%     30.03 30.02      
Apr 19 18:53   10 Clear CLR 67 38     34%     30.03 30.02      
Apr 19 17:53   10 Mostly Clear FEW060 68 37     32%     30.03 30.02      
Apr 19 16:53   10 Mostly Clear FEW060 68 37     32%     30.04 30.03      
Apr 19 15:53   10 Mostly Clear FEW060 67 40     37%     30.05 30.04      
Apr 19 14:53   10 Partly Cloudy SCT060 65 40     40%     30.08 30.07      
Apr 19 13:53   10 Partly Cloudy SCT050 SCT065 64 42     45%     30.1 30.09      
Apr 19 12:53   10 Mostly Cloudy SCT044 BKN055 63 41     45%     30.11 30.1      
Apr 19 11:53   10 Mostly Cloudy SCT040 BKN055 61 43     52%     30.11 30.1      
Apr 19 10:53   10 Mostly Clear FEW032 FEW060 60 44     55%     30.11 30.09      
Apr 19 09:53   10 Mostly Clear FEW010 FEW030 58 42     55%     30.08 30.06      
Apr 19 08:53   10 Clear CLR 57 41     55%     30.06 30.05      
Apr 19 07:53 NW 15 10 Clear CLR 54 42     64%     30.04 30.03      
Apr 19 06:53 NW 14 10 Clear CLR 52 42     69%     30.01 30      
Apr 19 05:53 NW 11 10 Mostly Clear FEW250 53 42     66%     29.98 29.97      
Apr 19 04:53 NW 13 10 Mostly Clear FEW250 54 42     64%     29.97 29.96      
Apr 19 03:53 NW 13 10 Mostly Clear FEW250 54 44     69%     29.96 29.95      
Apr 19 02:53 NW 9 10 Mostly Clear FEW250 54 45     72%     29.96 29.95      
Apr 19 01:53 NW 9 10 Mostly Clear FEW160 FEW250 54 45     72%     29.97 29.96      
Apr 19 00:53 NW 10 10 Mostly Clear FEW250 55 45     69%     29.97 29.96     0
Apr 18 23:53 NW 9 10 Mostly Clear FEW250 55 45     69%     29.96 29.95      
Apr 18 22:53 N 8 10 Partly Cloudy FEW070 SCT250 57 44     62%     29.95 29.94 0    
Apr 18 21:53   7 Light Rain BKN060 OVC070 59 48     67%     29.96 29.95 0 0  
Apr 18 21:18   6 Light Rain SCT070 OVC090 65 44     47%     29.92   0    
Apr 18 20:53 WNW 10 10 Partly Cloudy FEW070 SCT120 SCT180 65 45     48%     29.88 29.86      
Apr 18 19:53   10 Mostly Clear FEW025 FEW070 FEW100 67 42     40%     29.86 29.84      
Apr 18 18:53   10 Mostly Clear FEW070 FEW100 70 41     35%     29.84 29.83     0
Apr 18 17:53   10 Mostly Clear FEW020 FEW070 72 40     31%   70 29.83 29.81      
Apr 18 16:53   10 Mostly Clear FEW020 FEW070 FEW250 72 40     31%   70 29.82 29.8      
Apr 18 15:53   10 Mostly Clear FEW030 FEW090 FEW250 72 43     35%   71 29.82 29.81   0  
Apr 18 14:53   10 Mostly Clear FEW030 FEW090 FEW250 70 49     47%     29.83 29.81      
Apr 18 13:53   10 Mostly Cloudy FEW016 SCT029 BKN090 BKN250 63 53     70%     29.82 29.8 0    
Apr 18 13:49   10 Mostly Cloudy FEW016 SCT029 BKN090 BKN250 63 54     72%     29.82   0    
Apr 18 12:53   10 Cloudy SCT018 BKN027 BKN041 OVC200 62 54     75%     29.8 29.79 0   0
Apr 18 12:27 NNW 13 10 Light Rain FEW013 SCT025 OVC038 61 56     83%     29.81   0    
Apr 18 11:53   9 Thunderstorms and Rain FEW010 SCT015 OVC025 60 56     86%     29.8 29.79 0    
Apr 18 11:33 N 9 5 Thunderstorms and Rain and Fog/Mist FEW010 SCT014 OVC025 61 58     90%     29.8   0    
Apr 18 11:00   3 Thunderstorms and Heavy Rain and Fog/Mist FEW011 BKN018 OVC039 62 58     86%     29.79   0    
Apr 18 10:53   1.75 Thunderstorms and Rain FEW011 BKN018 OVC048 63 58     84%     29.79 29.77 0    
Apr 18 10:51   1.5 Thunderstorms and Rain FEW011 BKN018 OVC048 64 59     83%     29.79   0    
Apr 18 10:46 NNW 8 3 Thunderstorms and Haze FEW011 BKN018 OVC050 66 59     78%     29.78        
Apr 18 10:33 Calm 8 Thunderstorms FEW010 SCT020 OVC055 66 59     78%     29.77        
Apr 18 09:59 NNE 6 10 Cloudy BKN010 BKN019 OVC046 65 60     84%     29.76        
Apr 18 09:53 N 3 10 Cloudy SCT013 BKN019 OVC037 65 60     84%     29.77 29.75      
Apr 18 09:37 Calm 10 Cloudy SCT013 BKN025 OVC030 65 60     84%     29.76        
Apr 18 08:53 E 5 8 Mostly Cloudy FEW012 SCT030 BKN130 BKN190 BKN250 64 60     87%     29.73 29.71      
Apr 18 08:50 ESE 3 8 Mostly Cloudy FEW012 SCT030 BKN130 BKN190 BKN250 64 61     88%     29.73        
Apr 18 08:13 NE 5 9 Cloudy BKN012 BKN024 BKN030 BKN130 OVC190 63 59     87%     29.74        
Apr 18 07:53 NE 3 10 Cloudy SCT012 BKN021 OVC025 64 59     84%     29.73        
Apr 18 06:53 NNW 3 10 Cloudy SCT008 BKN015 BKN120 OVC190 63 59     87%     29.67       0
Apr 18 06:50 NNW 3 10 Cloudy SCT008 BKN015 BKN120 OVC190 63 57     83%     29.67        
Apr 18 05:53 ESE 6 10 Cloudy FEW009 FEW120 OVC170 63 58     84%     29.65   0    
Apr 18 04:53   9 Light Rain SCT007 BKN110 OVC140 63 59     87%     29.63 29.61 0    
Apr 18 04:23 S 10 10 Cloudy FEW008 SCT120 OVC150 63 60     90%     29.7        
Apr 18 03:53 SSE 7 10 Cloudy FEW012 FEW080 OVC140 63 59     87%     29.65 29.64 0 0  
Apr 18 02:53 SE 7 10 Cloudy FEW065 BKN130 OVC170 63 59     87%     29.6   0    
Apr 18 02:14 ESE 3 9 Light Rain FEW055 BKN080 OVC200 62 59     90%     29.71   0    
Apr 18 01:53 NNW 8 4 Thunderstorms and Rain and Fog/Mist FEW015 OVC070 62 59     90%     29.71 29.69 0    
Apr 18 01:09 6 3 Thunderstorms and Rain and Fog/Mist FEW008 SCT018 OVC060 62 59     90%     29.75   0    
Apr 18 00:53 WNW 11 1 Thunderstorms and Heavy Rain and Fog/Mist BKN013 OVC026 62 59     90%     29.74 29.72 0   0
Apr 18 00:44   1.25 Thunderstorms and Heavy Rain BKN013 OVC026 63 58     84%     29.73   0    
Apr 18 00:38   1.5 Thunderstorms and Heavy Rain SCT014 BKN028 OVC040 65 58     78%     29.74   0    
Apr 18 00:30   5 Thunderstorms and Rain SCT016 OVC028 72 66     82%   73 29.73   0    
Apr 18 00:15 SSE 3 8 Thunderstorms BKN016 OVC035 74 68     82%   75 29.7        
Apr 17 23:53 S 8 8 Cloudy BKN015 OVC028 74 68     82%   75 29.69 29.67 0    
Apr 17 23:38 S 8 9 Cloudy BKN016 OVC029 74 68     82%   75 29.67   0    
Apr 17 22:53 SSE 11 9 Thunderstorms BKN019 OVC030 75 68     79%   76 29.69 29.67      
Apr 17 22:46 SSE 13 9 Thunderstorms BKN017 OVC025 75 68     79%   76 29.69        
Apr 17 21:53 S 16 10 Cloudy FEW014 OVC017 74 69     85%   75 29.69 29.67      
Apr 17 20:53 SSE 21 10 Mostly Cloudy and Windy BKN016 BKN033 BKN250 74 69     85%   75 29.63 29.62      
May 14 14:53 SSW 11 10 Mostly Cloudy SCT047 BKN055 BKN200 BKN250 89 67     48%   92 29.92 29.9      
May 14 11:12 SSW 11 10 Mostly Cloudy SCT029 BKN085 BKN250 82 69     65%   85 29.98        
May 14 05:53 S 10 10 Mostly Cloudy BKN016 BKN250 75 70     84%   76 29.97 29.95      
May 13 15:53 SSE 17 10 Partly Cloudy FEW050 SCT070 88 66     48%   90 29.94 29.92      
May 13 04:53 S 11 10 Mostly Clear FEW020 FEW200 75 69     82%   76 29.96 29.94      
Notice The following observation data may not be complete
May 12 18:53   10 Mostly Clear FEW060          %              
May 12 07:53   10 Mostly Cloudy BKN020 75 68     79%   76 29.97 29.94      
May 12 03:53   10 Mostly Cloudy BKN021 74 67     79%   75 29.91 29.89      
Jun 12 06:53 S 8 10 Mostly Clear FEW012 76 72     88%   77 29.92 29.9      
Jun 12 05:53 S 10 10 Mostly Cloudy BKN015 76 72     88%   77 29.91 29.89      
Jun 11 14:53 SSE 17 10 Clear   88 65     47%   90 29.92 29.9      
Jun 11 13:53 S 20 10 Partly Cloudy and Windy SCT044 87 65     48%   89 29.93 29.91      
Jun 11 05:53 S 11 10 Partly Cloudy SCT016 74 69     85%   75 29.9 29.88      
Jun 11 02:53 SSE 15 10 Clear CLR 77 69     77%   78 29.89 29.87      
Jun 10 12:53 S 14 10 Partly Cloudy FEW030 FEW070 SCT250 85 66     53%   87 29.9 29.88      
Jun 09 12:29 SSE 8 10 Cloudy BKN014 BKN060 OVC140 71 65     81%   72 29.94        
Jun 09 07:25   4 Thunderstorms and Heavy Rain SCT029 OVC050 68 62     81%     29.98   0    
Jun 07 15:53 NNW 7 10 Mostly Cloudy FEW055 SCT070 BKN120 BKN250 90 64     42%   91 29.94 29.92      
Jun 06 06:53 N 3 10 Mostly Clear FEW250 71 68     90%   72 29.86 29.83      
Jun 05 20:53 NNE 5 10 Mostly Cloudy FEW040 FEW170 BKN250 77 70     79%   78 29.78 29.75      
Jun 05 16:53 E 6 10 Light Rain FEW025 SCT040 BKN080 BKN130 BKN250 74 71     91%   75 29.76 29.74 0